Regional Weather Roundup
Issued by NWS Grand Forks, ND

Home | Current Version | Previous Version | Text Only | Print | Product List | Glossary On
Versions: 1 2 3 4 5 6 7 8 9 10 11 12 13 14 15 16 17 18 19 20 21 22 23 24 25 26 27 28 29 30 31 32 33 34 35 36 37 38 39 40 41 42 43 44 45 46 47 48 49 50
000
ASUS43 KFGF 181231
RWRFGF
PRAIRIE TO PINES  WEATHER ROUNDUP
NATIONAL WEATHER SERVICE EASTERN NORTH DAKOTA/GRAND FORKS ND
700 AM CDT FRI APR 18 2014

 **SATELLITE DATA USED TO AUGMENT SKY COVER AT AUTOMATED STATIONS**
 *****  WEATHER ACROSS EASTERN NORTH DAKOTA  *****

CITY           SKY/WX    TMP DP  RH WIND       PRES   REMARKS
GRAND FORKS    PTCLDY    31  15  52 SE8       30.28S WCI  23
6HR MIN TEMP:  29; 6HR MAX TEMP:  32;

GRAND FRKS AFB PTCLDY    29  19  67 SE6       30.28S WCI  23
GRAND FRKS NWS   N/A     32 N/A N/A E14         N/A  WCI  22
DEVILS LAKE    CLOUDY    32  16  51 SE14      30.18F WCI  22
6HR MIN TEMP:  30; 6HR MAX TEMP:  34;

FARGO          CLOUDY    35  24  64 S9        30.27S
WAHPETON ARPT  CLOUDY    32  25  74 SE6       30.29R
$$

 ***** WEATHER ACROSS CENTRAL AND WESTERN NORTH DAKOTA  *****

CITY           SKY/WX    TMP DP  RH WIND       PRES   REMARKS
BISMARCK       CLOUDY    35  22  58 E16       30.05F
6HR MIN TEMP:  33; 6HR MAX TEMP:  35;

MINOT          MOCLDY    30  21  69 E14       30.04F WCI  19
6HR MIN TEMP:  29; 6HR MAX TEMP:  33;

JAMESTOWN      PTCLDY    31  23  72 E16       30.16F WCI  20
6HR MIN TEMP:  30; 6HR MAX TEMP:  33;

MINOT AFB      MOCLDY    29  22  75 SE18      30.04F WCI  17
GARRISON         N/A     33  23  66 SE18G29   30.01F WCI  22
WILLISTON      CLOUDY    37  24  59 SE10      29.90F
6HR MIN TEMP:  37; 6HR MAX TEMP:  40; 6HR PCP: TRACE;

DICKINSON      PTCLDY    31  23  72 SE14      29.89R WCI  21
6HR MIN TEMP:  31; 6HR MAX TEMP:  36;

HETTINGER      PTCLDY    29  23  78 E12       29.90S WCI  19
6HR MIN TEMP:  29; 6HR MAX TEMP:  35;

$$

 *****  OTHER AIRPORT OBSERVATIONS IN OUR AREA  *****

CITY           SKY/WX    TMP DP  RH WIND       PRES   REMARKS
WALHALLA         N/A     25  21  86 SE5       30.28F WCI  19
GRAFTON AIRPOR FAIR      28  23  80 E7        30.29S WCI  21
VALLEY CITY AR CLOUDY    32  25  74 SE9       30.21F WCI  24
CANDO          CLOUDY    32  19  59 SE16      30.18F WCI  21
CAVALIER APRT  FAIR      27  23  86 SE5       30.29S WCI  21
GWINNER        CLOUDY    34  25  69 E16       30.22S WCI  23
ROLLA          PTSUNNY   28  18  64 SE16      30.16F WCI  17
 ***** THE ABOVE OBSERVATIONS ARE NON NWS ARE NOT QUALITY
       CONTROLLED AND MAY MIS-REPORT RAIN FOR SNOW...
$$

  *****  WEATHER ACROSS NORTHERN MINNESOTA  *****

CITY           SKY/WX    TMP DP  RH WIND       PRES   REMARKS
FLAG ISLAND    CLEAR     16  12  86 CALM      30.34R
WARROAD        CLEAR     19  16  86 CALM      30.34R
ROSEAU         PTCLDY    27  18  69 E5        30.32S WCI  21
HALLOCK        CLOUDY    28  16  59 E9        30.30S WCI  20
THF RVR FALLS  CLEAR     27  16  63 E8        30.32R WCI  18
6HR MIN TEMP:  27; 6HR MAX TEMP:  30;

BAUDETTE       CLEAR     20  17  88 CALM      30.33R
6HR MIN TEMP:  18; 6HR MAX TEMP:  24;

WASKISH        CLEAR     21  19  93 CALM      30.34R
CROOKSTON      PTCLDY    30  19  64 SE7       30.30F WCI  23
$$
  *****  WEATHER ACROSS CENTRAL AND WEST MINNESOTA  *****

CITY           SKY/WX    TMP DP  RH WIND       PRES   REMARKS
FOSSTON        PTCLDY    27  18  69 SE5       30.30S WCI  21
BEMIDJI        CLOUDY    25  21  85 E3        30.31R
PARK RAPIDS    CLOUDY    28  20  71 CALM      30.29R
6HR MIN TEMP:  27; 6HR MAX TEMP:  30;

ELBOW LAKE     CLOUDY    32  25  75 E5        30.28S
6HR MIN TEMP:  32; 6HR MAX TEMP:  33;

WADENA         CLOUDY    28  21  74 CALM      30.29R
DETROIT LAKES  PTCLDY    30  23  74 CALM      30.29R
MOORHEAD       CLOUDY    34  27  75 S6        30.29R
FERGUS FALLS   MOCLDY    34  21  60 CALM      30.27R
MORRIS MN      PTCLDY    30  25  80 E6        30.29R WCI  24
STAPLES        CLOUDY    27  21  80 CALM      30.30S
$$
  *****  WEATHER ELSEWHERE ACROSS MINNESOTA  *****

CITY           SKY/WX    TMP DP  RH WIND       PRES   REMARKS
DULUTH         PTCLDY    21  17  84 N3        30.33R
6HR MIN TEMP:  20; 6HR MAX TEMP:  26;

INTRNTL FALLS  CLEAR     18  15  88 E3        30.34R
6HR MIN TEMP:  15; 6HR MAX TEMP:  21;

ELY            MOCLDY    10   9  92 CALM      30.36R
CLOQUET        PTCLDY    18  16  93 CALM      30.34R
WHEATON        CLOUDY    34  28  80 E9        30.30S
BRAINERD       CLOUDY    33  22  63 CALM      30.32R
6HR MIN TEMP:  31; 6HR MAX TEMP:  35;

HIBBING        CLEAR     18  14  84 CALM      30.34R
6HR MIN TEMP:  16; 6HR MAX TEMP:  23;

ALEXANDRIA     CLOUDY    31  24  75 SE5       30.29R
6HR MIN TEMP:  28; 6HR MAX TEMP:  32;

SAINT CLOUD    CLOUDY    26  22  84 CALM      30.34R
6HR MIN TEMP:  19; 6HR MAX TEMP:  28;

MINNEAPOLIS    MOCLDY    29  28  96 CALM      30.37R FOG
6HR MIN TEMP:  26; 6HR MAX TEMP:  33;

$$

  *****  WEATHER ACROSS SOUTH DAKOTA  *****

CITY           SKY/WX    TMP DP  RH WIND       PRES   REMARKS
SIOUX FALLS    CLOUDY    34  29  82 SE14      30.22F WCI  25
6HR MIN TEMP:  32; 6HR MAX TEMP:  35;

BROOKINGS      NOT AVBL
WATERTOWN      CLOUDY    34  26  72 SE13G21   30.19R WCI  25
6HR MIN TEMP:  32; 6HR MAX TEMP:  34;

HURON          CLOUDY    37  28  70 SE17G24   30.11F
6HR MIN TEMP:  32; 6HR MAX TEMP:  37;

SISSETON         N/A     32  25  75 SE8       30.25R WCI  25
ABERDEEN       MOCLDY    35  19  52 E14       30.14F
6HR MIN TEMP:  33; 6HR MAX TEMP:  35;

MITCHELL       CLOUDY    37  29  72 SE21      30.14F
PIERRE         CLEAR     35  26  69 E14       29.97S
6HR MIN TEMP:  35; 6HR MAX TEMP:  38;

MOBRIDGE       PTCLDY    34  24  67 SE18      29.97F WCI  23
RAPID CITY     CLEAR     34  31  88 SE5       29.82F
6HR MIN TEMP:  31; 6HR MAX TEMP:  38;

$$

  *****  SOME WEATHER IN NEARBY STATES *****

CITY           SKY/WX    TMP DP  RH WIND       PRES   REMARKS
GLASGOW MT     CLOUDY    40  33  76 E21       29.70F
6HR MIN TEMP:  40; 6HR MAX TEMP:  44; 6HR PCP: TRACE;

GREAT FALLS MT CLOUDY    45  40  82 SW15      29.64S
6HR MIN TEMP:  44; 6HR MAX TEMP:  46; 6HR PCP:  0.04;

CHEYENNE WY    PTCLDY    37  27  67 SW10      29.98F
6HR MIN TEMP:  35; 6HR MAX TEMP:  42;

SCOTTSBLUFF NE PTCLDY    36  32  85 E6        29.92S
6HR MIN TEMP:  36; 6HR MAX TEMP:  52;

OMAHA NE       PTCLDY    30  26  85 CALM      30.28R
6HR MIN TEMP:  29; 6HR MAX TEMP:  37;

DES MOINES IA  PTCLDY    34  29  82 E5        30.33R HAZE
6HR MIN TEMP:  34; 6HR MAX TEMP:  41;

DAVENPORT IA   CLEAR     32  29  88 N6        30.36R FOG
6HR MIN TEMP:  26; 6HR MAX TEMP:  36;

CHICAGO IL     PTCLDY    41  33  73 N5        30.30R
6HR MIN TEMP:  40; 6HR MAX TEMP:  48;

EAU CLAIRE WI  MOCLDY    24  23  96 CALM      30.37R FOG
6HR MIN TEMP:  20; 6HR MAX TEMP:  26;

LA CROSSE WI   MOCLDY    29  26  89 CALM      30.37R
6HR MIN TEMP:  28; 6HR MAX TEMP:  37;

$$

  *****  SOME NATIONAL WEATHER *****

CITY           SKY/WX    TMP DP  RH WIND       PRES   REMARKS
LA GUARDIA NY  CLOUDY    36  26  67 NE9       30.56R
6HR MIN TEMP:  35; 6HR MAX TEMP:  37;

RALEIGH NC     PTSUNNY   41  36  82 NE6       30.44R
6HR MIN TEMP:  38; 6HR MAX TEMP:  43;

ATLANTA GA     CLOUDY    54  39  57 E12       30.29R
6HR MIN TEMP:  54; 6HR MAX TEMP:  57;

NEW ORLEANS LA CLOUDY    62  60  93 N8        30.10R
6HR MIN TEMP:  61; 6HR MAX TEMP:  64; 6HR PCP: TRACE;

OKLAHOMA CITY  PTCLDY    43  38  82 N8        30.25R HAZE
6HR MIN TEMP:  43; 6HR MAX TEMP:  51;

ALBUQUERQUE NM PTCLDY    46  27  47 N6        30.14S
6HR MIN TEMP:  46; 6HR MAX TEMP:  59;

SALT LAKE CITY CLOUDY    64  24  21 S20       29.81F
6HR MIN TEMP:  62; 6HR MAX TEMP:  66;

LOS ANGELES CA CLOUDY    62  51  67 SE6       29.88R
6HR MIN TEMP:  61; 6HR MAX TEMP:  64;

BOISE ID       CLOUDY    48  40  73 NW3       29.94R



USA.gov is the U.S. government's official web portal to all federal, state and local government web resources and services.